Regional Weather Roundup
Issued by NWS Little Rock, AR

Home | Current Version | Previous Version | Graphics & Text | Print | Product List | Glossary On
Versions: 1 2 3 4 5 6 7 8 9 10 11 12 13 14 15 16 17 18 19 20 21 22 23 24 25 26 27 28 29 30 31 32 33 34 35 36 37 38 39 40 41 42 43 44 45 46 47 48 49 50
038
ASUS44 KLZK 261105
RWRLZK

WEATHER ROUNDUP FOR ARKANSAS
NATIONAL WEATHER SERVICE LITTLE ROCK AR
600 AM CDT MON JUN 26 2017

NOTE: "FAIR" INDICATES FEW OR NO CLOUDS BELOW 12,000 FEET WITH NO
SIGNIFICANT WEATHER AND/OR OBSTRUCTIONS TO VISIBILITY.

ARZ001-003-010-029-261200-
NORTHWEST ARKANSAS

CITY           SKY/WX    TMP DP  RH WIND       PRES   REMARKS
FAYETTEVILLE   CLOUDY    64  62  93 CALM      30.23S
FORT SMITH     PTCLDY    69  63  81 NE3       30.19S
HARRISON       CLOUDY    63  60  90 N5        30.25R
BENTONVILLE    MOCLDY    70  57  64 CALM      30.24S
ROGERS         CLOUDY    66  61  84 N3        30.24S
SILOAM SPGS    CLOUDY    66  59  77 CALM      30.22S
HIGHFILL       CLOUDY    69  62  78 CALM      30.23S
SPRINGDALE     MOCLDY    66  61  82 CALM      30.25
$$

ARZ004-005-016-261200-
NORTH CENTRAL ARKANSAS

CITY           SKY/WX    TMP DP  RH WIND       PRES   REMARKS
BATESVILLE     CLOUDY    64  59  82 CALM      30.22R
FLIPPIN        CLOUDY    64  57  77 CALM      30.22R
$$

ARZ040-041-261200-
WEST CENTRAL ARKANSAS

CITY           SKY/WX    TMP DP  RH WIND       PRES   REMARKS
MENA           MOCLDY    64  64 100 S3        30.21S
MOUNT IDA      CLOUDY    66  63  90 CALM      30.18F
$$

ARZ009-017-025-026-028-261200-
NORTHEAST ARKANSAS

CITY           SKY/WX    TMP DP  RH WIND       PRES   REMARKS
CORNING        FAIR      66  61  82 N3        30.21R
JONESBORO      CLOUDY    69  59  70 N6        30.20R
WALNUT RIDGE   CLOUDY    66  57  72 N5        30.21R
BLYTHEVILLE    CLOUDY    66  64  93 N7        30.19S
$$

ARZ022-023-033-042-044-261200-
CENTRAL ARKANSAS

CITY           SKY/WX    TMP DP  RH WIND       PRES   REMARKS
LITTLE ROCK    CLOUDY    68  66  93 N6        30.20R
N LITTLE ROCK    N/A     69  62  79 NW3       30.18F
JACKSONVILLE   CLOUDY    67  65  91 CALM      30.19S
CONWAY           N/A     68  66  94 CALM      30.18S
SEARCY         CLOUDY    66  65  96 MISG        N/A
HOT SPRINGS    CLOUDY    69  65  86 CALM      30.20S
RUSSELLVILLE   CLOUDY    66  65  96 CALM      30.19S
CLINTON        FAIR      64  63  94 CALM      30.21R
$$

ARZ036-261200-
EAST ARKANSAS

CITY           SKY/WX    TMP DP  RH WIND       PRES   REMARKS
WEST MEMPHIS   CLOUDY    68  66  93 CALM      30.18R
$$

ARZ050-053-066-070-073-261200-
SOUTHWEST ARKANSAS

CITY           SKY/WX    TMP DP  RH WIND       PRES   REMARKS
CAMDEN         PTCLDY    64  63  94 CALM      30.19R
TEXARKANA      PTCLDY    64  64 100 NE3       30.18R
EL DORADO      CLEAR     63  61  93 CALM      30.18F
DE QUEEN       MOCLDY    67  67 100 CALM      30.17R
$$

ARZ056-057-069-261200-
SOUTHEAST ARKANSAS

CITY           SKY/WX    TMP DP  RH WIND       PRES   REMARKS
PINE BLUFF     CLOUDY    66  65  96 SW3       30.19S
STUTTGART      MOCLDY    70  57  64 NW6       30.20S
MONTICELLO       N/A     64  62  93 CALM      30.18F

$$






USA.gov is the U.S. government's official web portal to all federal, state and local government web resources and services.